Weather History for KAUM - July, 2013

Change the Weather History Date:

Wednesday, July 24, 2013

  Actual Average Record
Temperature  
Mean Temperature 66 °F -  
Max Temperature 78 °F 78 °F 89 °F (1999)
Min Temperature 53 °F 60 °F 53 °F (1998)
Growing Degree Days 16 (Base 50)    
Moisture  
Dew Point 52 °F    
Average Humidity 63    
Maximum Humidity 94    
Minimum Humidity 34    
Precipitation  
Precipitation 0.00 in - - ()
Sea Level Pressure  
Sea Level Pressure 30.05 in    
Wind  
Wind Speed 1 mph (SW)    
Max Wind Speed 6 mph    
Max Gust Speed -    
Visibility 10 miles    
Events      
Averages and records for this station are not official NWS values.
T = Trace of Precipitation, MM = Missing Value Source: NWS Daily Summary

Daily Weather History Graph

Daily Weather History Graph

Search for Another Location

Airport or City:

Trip Planner

Search our weather history database for the weather conditions in past years. The results will help you decide how hot, cold, wet, or windy it might be!

Date:

Astronomy

Jul. 24, 2013 Rise Set
Actual Time 5:52 AM CDT 8:43 PM CDT
Civil Twilight 5:19 AM CDT 9:16 PM CDT
Nautical Twilight 4:36 AM CDT 9:59 PM CDT
Astronomical Twilight 3:46 AM CDT 10:48 PM CDT
Moon 9:41 PM CDT (7/24) 8:19 AM CDT (7/24)
Length of Visible Light 15h 57m
Length of Day
14h 50m
Waning Gibbous, 94% of the Moon is Illuminated
Jul 24
Waning Gibbous
Jul 29
Last Quarter
Aug 6
New
Aug 14
First Quarter
Aug 20
Full

Hourly Weather History & Observations

Time (CDT) Temp. Dew Point Humidity Pressure Visibility Wind Dir Wind Speed Gust Speed Precip Events Conditions
12:16 AM 60.8 °F 53.6 °F 77% 30.04 in 10.0 mi Calm Calm - N/A   Clear
12:36 AM 60.8 °F 53.6 °F 77% 30.04 in 10.0 mi Calm Calm - N/A   Clear
12:56 AM 57.2 °F 53.6 °F 88% 30.04 in 10.0 mi Calm Calm - N/A   Clear
1:16 AM 57.2 °F 53.6 °F 88% 30.04 in 10.0 mi Calm Calm - N/A   Clear
1:36 AM 57.2 °F 53.6 °F 88% 30.04 in 10.0 mi Calm Calm - N/A   Clear
1:56 AM 57.2 °F 53.6 °F 88% 30.04 in 10.0 mi Calm Calm - N/A   Clear
2:16 AM 57.2 °F 53.6 °F 88% 30.04 in 10.0 mi Calm Calm - N/A   Clear
2:36 AM 55.4 °F 51.8 °F 88% 30.04 in 10.0 mi Calm Calm - N/A   Clear
2:56 AM 55.4 °F 51.8 °F 88% 30.04 in 10.0 mi Calm Calm - N/A   Clear
3:16 AM 55.4 °F 51.8 °F 88% 30.05 in 10.0 mi NNE 5.8 mph - N/A   Clear
3:36 AM 55.4 °F 51.8 °F 88% 30.05 in 10.0 mi Calm Calm - N/A   Clear
3:56 AM 55.4 °F 51.8 °F 88% 30.05 in 10.0 mi Calm Calm - N/A   Clear
4:16 AM 55.4 °F 51.8 °F 88% 30.06 in 10.0 mi Calm Calm - N/A   Clear
4:36 AM 55.4 °F 51.8 °F 88% 30.06 in 10.0 mi Calm Calm - N/A   Clear
4:56 AM 55.4 °F 51.8 °F 88% 30.06 in 10.0 mi Calm Calm - N/A   Clear
5:16 AM 53.6 °F 51.8 °F 94% 30.06 in 10.0 mi Calm Calm - N/A   Clear
5:36 AM 55.4 °F 51.8 °F 88% 30.06 in 10.0 mi Calm Calm - N/A   Clear
5:56 AM 55.4 °F 51.8 °F 88% 30.06 in 10.0 mi Calm Calm - N/A   Clear
6:16 AM 55.4 °F 51.8 °F 88% 30.06 in 10.0 mi Calm Calm - N/A   Clear
6:36 AM 55.4 °F 51.8 °F 88% 30.07 in 10.0 mi Calm Calm - N/A   Clear
6:56 AM 57.2 °F 53.6 °F 88% 30.07 in 10.0 mi Calm Calm - N/A   Clear
7:16 AM 60.8 °F 51.8 °F 72% 30.08 in 10.0 mi Calm Calm - N/A   Clear
7:36 AM 60.8 °F 53.6 °F 77% 30.09 in 10.0 mi Calm Calm - N/A   Scattered Clouds
7:56 AM 60.8 °F 51.8 °F 72% 30.08 in 10.0 mi Calm Calm - N/A   Scattered Clouds
8:16 AM 60.8 °F 53.6 °F 77% 30.08 in 10.0 mi Calm Calm - N/A   Clear
8:36 AM 62.6 °F 53.6 °F 72% 30.09 in 10.0 mi Calm Calm - N/A   Clear
8:56 AM 62.6 °F 53.6 °F 72% 30.09 in 10.0 mi Calm Calm - N/A   Clear
9:16 AM 62.6 °F 53.6 °F 72% 30.09 in 10.0 mi South 4.6 mph - N/A   Clear
9:36 AM 64.4 °F 55.4 °F 73% 30.09 in 10.0 mi South 4.6 mph - N/A   Clear
9:56 AM 66.2 °F 55.4 °F 68% 30.09 in 10.0 mi South 3.5 mph - N/A   Clear
10:16 AM 69.8 °F 55.4 °F 60% 30.09 in 10.0 mi SW 3.5 mph - N/A   Clear
10:36 AM 69.8 °F 53.6 °F 56% 30.09 in 10.0 mi West 4.6 mph - N/A   Clear
10:56 AM 69.8 °F 53.6 °F 56% 30.09 in 10.0 mi WSW 3.5 mph - N/A   Scattered Clouds
11:16 AM 71.6 °F 53.6 °F 53% 30.09 in 10.0 mi SW 5.8 mph - N/A   Clear
11:36 AM 71.6 °F 51.8 °F 50% 30.09 in 10.0 mi Calm Calm - N/A   Scattered Clouds
11:56 AM 71.6 °F 51.8 °F 50% 30.08 in 10.0 mi Calm Calm - N/A   Mostly Cloudy
12:16 PM 73.4 °F 51.8 °F 47% 30.08 in 10.0 mi West 5.8 mph - N/A   Mostly Cloudy
12:36 PM 73.4 °F 51.8 °F 47% 30.08 in 10.0 mi WNW 4.6 mph - N/A   Mostly Cloudy
12:56 PM 73.4 °F 51.8 °F 47% 30.08 in 10.0 mi NW 5.8 mph - N/A   Mostly Cloudy
1:16 PM 75.2 °F 48.2 °F 38% 30.07 in 10.0 mi Calm Calm - N/A   Mostly Cloudy
1:36 PM 75.2 °F 48.2 °F 38% 30.07 in 10.0 mi NW 3.5 mph - N/A   Mostly Cloudy
1:56 PM 73.4 °F 48.2 °F 41% 30.06 in 10.0 mi Calm Calm - N/A   Mostly Cloudy
2:16 PM 73.4 °F 48.2 °F 41% 30.06 in 10.0 mi NW 5.8 mph - N/A   Overcast
2:36 PM 73.4 °F 48.2 °F 41% 30.06 in 10.0 mi NW 5.8 mph - N/A   Mostly Cloudy
2:56 PM 73.4 °F 48.2 °F 41% 30.06 in 10.0 mi NNW 4.6 mph - N/A   Mostly Cloudy
3:16 PM 75.2 °F 46.4 °F 36% 30.06 in 10.0 mi Calm Calm - N/A   Overcast
3:36 PM 75.2 °F 46.4 °F 36% 30.06 in 10.0 mi Calm Calm - N/A   Scattered Clouds
4:01 PM 75.2 °F 48.2 °F 38% 30.05 in 10.0 mi Calm Calm - N/A   Clear
4:16 PM 75.2 °F 48.2 °F 38% 30.04 in 10.0 mi Calm Calm - N/A   Scattered Clouds
4:36 PM 75.2 °F 48.2 °F 38% 30.04 in 10.0 mi West 3.5 mph - N/A   Mostly Cloudy
4:56 PM 75.2 °F 48.2 °F 38% 30.03 in 10.0 mi Calm Calm - N/A   Mostly Cloudy
5:16 PM 78.8 °F 48.2 °F 34% 30.03 in 10.0 mi SSE 4.6 mph - N/A   Mostly Cloudy
5:36 PM 75.2 °F 48.2 °F 38% 30.02 in 10.0 mi WSW 5.8 mph - N/A   Mostly Cloudy
5:56 PM 75.2 °F 48.2 °F 38% 30.02 in 10.0 mi SSW 3.5 mph - N/A   Mostly Cloudy
6:16 PM 75.2 °F 48.2 °F 38% 30.02 in 10.0 mi Calm Calm - N/A   Scattered Clouds
6:36 PM 75.2 °F 51.8 °F 44% 30.02 in 10.0 mi South 3.5 mph - N/A   Scattered Clouds
6:56 PM 75.2 °F 51.8 °F 44% 30.02 in 10.0 mi SSW 5.8 mph - N/A   Mostly Cloudy
7:16 PM 75.2 °F 51.8 °F 44% 30.02 in 10.0 mi South 5.8 mph - N/A   Mostly Cloudy
7:36 PM 75.2 °F 51.8 °F 44% 30.02 in 10.0 mi SSW 4.6 mph - N/A   Scattered Clouds
7:56 PM 73.4 °F 53.6 °F 50% 30.02 in 10.0 mi South 3.5 mph - N/A   Clear
8:16 PM 71.6 °F 53.6 °F 53% 30.02 in 10.0 mi South 3.5 mph - N/A   Scattered Clouds
8:41 PM 69.8 °F 53.6 °F 56% 30.02 in 10.0 mi South 4.6 mph - N/A   Scattered Clouds
8:56 PM 69.8 °F 53.6 °F 56% 30.02 in 10.0 mi South 4.6 mph - N/A   Scattered Clouds
9:16 PM 69.8 °F 53.6 °F 56% 30.02 in 10.0 mi Calm Calm - N/A   Clear
9:36 PM 68.0 °F 55.4 °F 64% 30.03 in 10.0 mi Calm Calm - N/A   Clear
9:56 PM 66.2 °F 55.4 °F 68% 30.03 in 10.0 mi SSW 5.8 mph - N/A   Clear
10:16 PM 64.4 °F 55.4 °F 73% 30.03 in 10.0 mi SSW 3.5 mph - N/A   Clear
10:36 PM 66.2 °F 55.4 °F 68% 30.03 in 10.0 mi Calm Calm - N/A   Clear
10:56 PM 64.4 °F 55.4 °F 73% 30.04 in 10.0 mi SSW 3.5 mph - N/A   Clear
11:16 PM 66.2 °F 55.4 °F 68% 30.04 in 10.0 mi South 3.5 mph - N/A   Clear
11:36 PM 64.4 °F 55.4 °F 73% 30.04 in 10.0 mi South 3.5 mph - N/A   Clear
11:56 PM 64.4 °F 55.4 °F 73% 30.03 in 10.0 mi Calm Calm - N/A   Clear